Погода в Конгсберге

Норвегия     59°40′00″N   9°39′01″E
темп.,
°C
ветер,
м/с
пор.,
м/с
влажн.,
%
обл.,
%
осадки,
мм/ч
давл.,
гПа
погр.,
м
17 августа, ср
ср1723:00+16ю119889 1.8 100631
02:00+15ю129995 1.8 100546
05:00+16ю1297100 0.9 100574
08:00+17ююз119499 1.1 1006154
11:00+22ююз236522 0.0 1007980
14:00+25ююз344340 0.1 10062154
17:00+24ююз344261 0.0 10061325
20:00+16ссв358293 0.1 1010270
18 августа, чт
чт1823:00+14с3585100 0.0 1012383
02:00+13ссв2387100 0.2 1014273
05:00+12ссв138599 0.0 1014190
08:00+13св1277100 0.0 1015275
11:00+16вюв1268100 0.0 1015835
14:00+15вюв137799 0.0 1015491
17:00+18юв346093 0.0 10141155
20:00+16вюв2369100 0.0 1014121
19 августа, пт
пт1923:00+11юв1197100 0.0 101514
02:00+11ю1197100 0.0 101411
05:00+10ююз0096100 0.0 101410
08:00+12ссв008399 0.0 1015189
11:00+18вюв1251100 0.0 1014686
14:00+22ююв2335100 0.0 10121363
17:00+22ююв3439100 0.0 10111494
20:00+17ю1261100 0.0 101130
20 августа, сб
сб2023:00+15ююз1162100 0.0 101123
02:00+13зюз1177100 0.1 101025
05:00+13юз1187100 0.1 101019
08:00+14ююз118471 0.1 1010206
11:00+18ю2370100 0.0 1009856
14:00+21ююз454857 0.3 10081763
17:00+22ю46408 0.0 10072118
20:00+17ююз485032 0.0 1008620
21 августа, вс
вс2123:00+13ююз4106120 0.0 1008464
02:00+10ююз238245 0.0 100962
05:00+8юз22965 0.0 101043
08:00+12ююз138120 0.0 1009266
11:00+18ююз475266 0.0 10081619
14:00+20ююз46315 0.0 10072557
17:00+20юз563122 0.0 10072628
20:00+17юз37445 0.0 1008354